Date String (YYYY-MM-DD hh:mm:ss) UTC,Instrument flags,Ambient pressure (hPa),Sample flow (lpm),Bypass flow (lpm),Sample temperature (°C),Ambient temperature (°C),ASC tube jacket temperature (°C),LED temperature (°C),Box temperature (°C),Sample RH (%),Span deviation,Mass concentration (μg/m³),Mass concentration (μg/m³),Mass concentration (μg/m³)
DateTimeUTC,F1_M11,P_M11,Q1_M11,Q2_M11,T1_M11,T2_M11,T3_M11,T4_M11,T5_M11,U1_M11,ZSPAN_M11,X0_M11,X2_M11,X1_M11
2023-04-23 09:00:00,,0830.2,5.00,0.00,22.7,21.4,00.0,31.1,24.2,12.5,0000.0,0004.04,0003.13,0002.75
2023-04-23 09:01:00,,0830.2,4.99,0.00,22.6,21.2,00.0,31.1,24.1,12.5,0000.0,0004.24,0003.15,0002.74
2023-04-23 09:02:00,,0830.2,5.00,0.00,22.6,21.1,00.0,31.1,24.1,12.6,0000.0,0004.41,0003.17,0002.74
2023-04-23 09:03:00,,0830.2,5.00,0.00,22.6,21.0,00.0,31.0,24.1,12.6,0000.0,0004.55,0003.19,0002.74
2023-04-23 09:04:00,,0830.2,5.00,0.00,22.6,20.9,00.0,31.0,24.1,12.6,0000.0,0004.46,0003.17,0002.72
2023-04-23 09:05:00,,0830.2,5.00,0.00,22.5,20.8,00.0,31.0,24.0,12.7,0000.0,0004.55,0003.17,0002.72
2023-04-23 09:06:00,,0830.3,5.00,0.00,22.5,20.8,00.0,31.0,24.0,12.8,0000.0,0004.54,0003.18,0002.73
2023-04-23 09:07:00,,0830.3,5.00,0.00,22.5,20.8,00.0,31.0,24.0,12.8,0000.0,0004.39,0003.15,0002.73
2023-04-23 09:08:00,,0830.2,5.00,0.00,22.5,20.7,00.0,31.0,23.9,12.7,0000.0,0004.39,0003.15,0002.72
2023-04-23 09:09:00,,0830.2,5.01,0.00,22.5,21.0,00.0,30.9,24.1,12.7,0000.0,0004.38,0003.15,0002.73
2023-04-23 09:10:00,,0830.3,5.00,0.00,22.6,22.0,00.0,30.9,24.5,12.5,0000.0,0004.32,0003.16,0002.73
2023-04-23 09:11:00,,0830.2,4.99,0.00,22.7,22.9,00.0,30.9,24.8,12.4,0000.0,0004.27,0003.15,0002.73
2023-04-23 09:12:00,,0830.2,4.99,0.00,22.8,23.0,00.0,30.9,24.7,12.3,0000.0,0004.24,0003.14,0002.73
2023-04-23 09:13:00,,0830.2,5.01,0.00,22.8,22.7,00.0,31.0,24.5,12.4,0000.0,0004.08,0003.11,0002.70
2023-04-23 09:14:00,,0830.3,4.99,0.00,22.8,22.4,00.0,31.0,24.4,12.4,0000.0,0003.93,0003.06,0002.68
2023-04-23 09:15:00,,0830.3,5.00,0.00,22.8,22.1,00.0,31.1,24.4,12.3,0000.0,0003.89,0003.01,0002.66
2023-04-23 09:16:00,,0830.2,5.01,0.00,22.8,21.8,00.0,31.1,24.3,12.4,0000.0,0003.86,0003.01,0002.65
2023-04-23 09:17:00,,0830.1,5.01,0.00,22.7,21.6,00.0,31.1,24.2,12.4,0000.0,0003.77,0002.96,0002.63
2023-04-23 09:18:00,,0830.2,4.99,0.00,22.7,21.4,00.0,31.1,24.2,12.3,0000.0,0003.78,0002.97,0002.62
2023-04-23 09:19:00,,0830.2,4.99,0.00,22.7,21.2,00.0,31.1,24.1,12.4,0000.0,0003.85,0002.98,0002.61
2023-04-23 09:20:00,,0830.2,5.01,0.00,22.6,21.1,00.0,31.1,24.1,12.4,0000.0,0003.89,0002.99,0002.59
2023-04-23 09:21:00,,0830.2,5.01,0.00,22.6,21.0,00.0,31.1,24.1,12.4,0000.0,0003.94,0002.99,0002.58
2023-04-23 09:22:00,,0830.2,4.99,0.00,22.6,20.9,00.0,31.0,24.1,12.5,0000.0,0003.91,0002.97,0002.57
2023-04-23 09:23:00,,0830.3,5.00,0.00,22.6,20.9,00.0,31.0,24.0,12.5,0000.0,0003.88,0002.97,0002.58
2023-04-23 09:24:00,,0830.3,4.99,0.00,22.5,20.8,00.0,31.0,24.0,12.4,0000.0,0003.86,0002.99,0002.60
2023-04-23 09:25:00,,0830.3,5.00,0.00,22.5,20.8,00.0,31.0,24.0,12.5,0000.0,0003.80,0002.99,0002.60
2023-04-23 09:26:00,,0830.2,5.01,0.00,22.5,20.8,00.0,31.0,24.0,12.6,0000.0,0003.75,0003.00,0002.61
2023-04-23 09:27:00,,0830.2,5.01,0.00,22.5,21.4,00.0,30.9,24.3,12.6,0000.0,0003.74,0002.99,0002.62
2023-04-23 09:28:00,,0830.2,4.98,0.00,22.6,22.4,00.0,30.9,24.6,12.4,0000.0,0003.93,0003.04,0002.63
2023-04-23 09:29:00,,0830.3,5.00,0.00,22.8,23.2,00.0,30.9,24.8,12.3,0000.0,0004.01,0003.06,0002.63
2023-04-23 09:30:00,,0830.2,5.01,0.00,22.8,23.0,00.0,31.0,24.7,12.4,0000.0,0003.97,0003.04,0002.62
2023-04-23 09:31:00,,0830.2,5.00,0.00,22.8,22.6,00.0,31.0,24.5,12.3,0000.0,0003.97,0003.06,0002.62
2023-04-23 09:32:00,,0830.2,4.99,0.00,22.8,22.3,00.0,31.1,24.4,12.4,0000.0,0004.03,0003.08,0002.63
2023-04-23 09:33:00,,0830.3,5.01,0.00,22.8,22.0,00.0,31.1,24.3,12.4,0000.0,0004.13,0003.11,0002.63
2023-04-23 09:34:00,,0830.2,5.01,0.00,22.7,21.7,00.0,31.1,24.3,12.4,0000.0,0004.24,0003.13,0002.62
2023-04-23 09:35:00,,0830.2,4.99,0.00,22.7,21.5,00.0,31.1,24.2,12.4,0000.0,0004.23,0003.13,0002.61
2023-04-23 09:36:00,,0830.3,5.00,0.00,22.7,21.4,00.0,31.1,24.2,12.4,0000.0,0004.30,0003.14,0002.61
2023-04-23 09:37:00,,0830.2,4.99,0.00,22.7,21.2,00.0,31.1,24.1,12.4,0000.0,0004.38,0003.16,0002.62
2023-04-23 09:38:00,,0830.2,5.00,0.00,22.6,21.1,00.0,31.1,24.1,12.4,0000.0,0004.30,0003.15,0002.61
2023-04-23 09:39:00,,0830.2,5.00,0.00,22.6,21.0,00.0,31.1,24.1,12.4,0000.0,0004.18,0003.13,0002.59
2023-04-23 09:40:00,,0830.3,5.00,0.00,22.6,20.9,00.0,31.0,24.0,12.3,0000.0,0003.99,0003.09,0002.58
2023-04-23 09:41:00,,0830.3,5.01,0.00,22.5,20.8,00.0,31.0,24.0,12.3,0000.0,0004.11,0003.13,0002.60
2023-04-23 09:42:00,,0830.3,5.00,0.00,22.5,20.8,00.0,31.0,24.0,12.3,0000.0,0004.11,0003.13,0002.61
2023-04-23 09:43:00,,0830.3,5.00,0.00,22.5,20.7,00.0,31.0,23.9,12.4,0000.0,0004.11,0003.13,0002.60
2023-04-23 09:44:00,,0830.3,5.00,0.00,22.5,20.9,00.0,31.0,24.0,12.4,0000.0,0004.02,0003.10,0002.58
2023-04-23 09:45:00,,0830.2,5.01,0.00,22.6,21.8,00.0,30.9,24.4,12.4,0000.0,0003.88,0003.05,0002.56
2023-04-23 09:46:00,,0830.3,4.99,0.00,22.7,22.8,00.0,30.9,24.7,12.3,0000.0,0004.01,0003.07,0002.55
2023-04-23 09:47:00,,0830.3,4.99,0.00,22.8,23.1,00.0,30.9,24.8,12.2,0000.0,0004.09,0003.05,0002.54
2023-04-23 09:48:00,,0830.2,5.00,0.00,22.8,22.9,00.0,31.0,24.6,12.2,0000.0,0004.09,0003.02,0002.52
2023-04-23 09:49:00,,0830.3,5.00,0.00,22.8,22.5,00.0,31.1,24.4,12.2,0000.0,0004.27,0003.08,0002.53
2023-04-23 09:50:00,,0830.2,5.00,0.00,22.8,22.2,00.0,31.1,24.4,12.2,0000.0,0004.24,0003.08,0002.52
2023-04-23 09:51:00,,0830.2,5.00,0.00,22.8,21.9,00.0,31.1,24.3,12.1,0000.0,0004.31,0003.09,0002.52
2023-04-23 09:52:00,,0830.3,5.00,0.00,22.7,21.6,00.0,31.1,24.3,12.3,0000.0,0004.42,0003.08,0002.51
2023-04-23 09:53:00,,0830.2,5.01,0.00,22.7,21.5,00.0,31.1,24.2,12.3,0000.0,0004.42,0003.07,0002.50
2023-04-23 09:54:00,,0830.2,5.01,0.00,22.7,21.3,00.0,31.1,24.2,12.3,0000.0,0004.47,0003.09,0002.51
2023-04-23 09:55:00,,0830.2,5.00,0.00,22.7,21.1,00.0,31.1,24.1,12.2,0000.0,0004.46,0003.10,0002.54
2023-04-23 09:56:00,,0830.2,5.00,0.00,22.6,21.0,00.0,31.1,24.1,12.3,0000.0,0004.49,0003.12,0002.57
2023-04-23 09:57:00,,0830.3,4.99,0.00,22.6,21.0,00.0,31.1,24.1,12.3,0000.0,0004.47,0003.12,0002.60
2023-04-23 09:58:00,,0830.2,5.00,0.00,22.6,20.9,00.0,31.0,24.0,12.3,0000.0,0004.34,0003.12,0002.61
2023-04-23 09:59:00,,0830.2,5.00,0.00,22.5,20.8,00.0,31.0,24.0,12.3,0000.0,0004.24,0003.11,0002.62
